Station 46022 (LLNR 500) - EEL RIVER - 17NM WSW of Eureka, CA Image indicating link to RSS feed of recent meteorological observations for station 46022


Conditions at 46022 as of
(11:20 pm PDT on 06/23/2024)
0620 GMT on 06/24/2024:
     

Click on the graph icon in the table below to see a time series plot of the last five days of that observation.

5-day plot - Wind Direction Wind Direction (WDIR): N ( 10 deg true )
5-day plot - Wind Speed Wind Speed (WSPD): 9.7 kts
5-day plot - Wind Gust Wind Gust (GST): 13.6 kts
5-day plot - Wave Height Wave Height (WVHT): 7.9 ft
5-day plot - Dominant Wave Period Dominant Wave Period (DPD): 12 sec
5-day plot - Average Wave Period Average Period (APD): 7.0 sec
5-day plot - Mean Wave Direction Mean Wave Direction (MWD):WNW ( 290 deg true )
5-day plot - Atmospheric Pressure Atmospheric Pressure (PRES):30.04 in
5-day plot - Air Temperature Air Temperature (ATMP): 53.6 °F
5-day plot - Water Temperature Water Temperature (WTMP): 53.8 °F
5-day plot - Dew Point Dew Point (DEWP): 51.3 °F
5-day plot - Wind Chill Wind Chill (CHILL): 50.2 °F
5-day plot - Wind Speed at 10 Meters Wind Speed at 10 meters (WSPD10M): 11.7 kts
5-day plot - Wind Speed at 20 Meters Wind Speed at 20 meters (WSPD20M): 11.7 kts
5-day plot -  Wind Speed, Wind Gust and Atmospheric Pressure Combined plot of Wind Speed, Gust, and Air Pressure
Supplemental Measurements
Highest 1-minute Wind Speed
Time (PDT)5-day plot - 1-Minute Wind Speed WSPD 5-day plot - 1-Minute Wind Direction WDIR
11:12 pm 11.7 kts-
Previous observations
TIME
(PDT)
5-day plot - Wind Direction
WDIR
 
5-day plot - Wind Speed
WSPD
kts
5-day plot - Wind Gust
GST
kts
5-day plot - Wave Height
WVHT
ft
5-day plot - Dominant Wave Period
DPD
sec
5-day plot - Average Wave Period
APD
sec
5-day plot - Mean Wave Direction
MWD
 
5-day plot - Atmospheric Pressure
PRES
in
5-day plot - Pressure Tendency
PTDY
in
5-day plot - Air Temperature
ATMP
°F
5-day plot - Water Temperature
WTMP
°F
5-day plot - Dew Point
DEWP
°F
5-day plot - Salinity
SAL
psu
5-day plot - Visibility
VIS
nmi
5-day plot - Tide (above MLLW)
TIDE
ft
2024-06-23 11:10 pm N 11.7 13.6----30.04- 53.6 53.6 51.3---
2024-06-23 11:00 pm N 11.7 13.6----30.04+0.00 53.4 53.1 51.1---
2024-06-23 10:50 pm N 9.7 13.6 8.9 117.5WNW30.04- 53.4 52.7 51.3---
2024-06-23 10:40 pm N 9.7 11.7----30.04- 53.4 52.7 51.1---
2024-06-23 10:30 pm N 9.7 13.6----30.04- 53.4 52.5 51.1---
2024-06-23 10:20 pm N 9.7 13.6 8.9 117.6WNW30.04- 53.4 52.5 51.1---
2024-06-23 10:10 pm N 9.7 13.6 8.9-7.6WNW30.04- 53.4 52.7 50.9---
2024-06-23 10:00 pm N 9.7 13.6----30.04+0.00 53.6 52.7 51.1---
2024-06-23 09:50 pm N 9.7 11.7 8.5 117.3WNW30.04- 53.4 52.9 50.9---
2024-06-23 09:40 pm N 9.7 13.6----30.04- 53.6 52.9 51.1---
2024-06-23 09:30 pm N 9.7 13.6----30.03- 53.6 53.1 51.1---
2024-06-23 09:20 pm N 11.7 13.6 8.5 117.4WNW30.03- 53.6 53.1 51.1---
2024-06-23 09:10 pm N 11.7 13.6 8.5-7.4WNW30.03- 53.6 53.1 51.1---
2024-06-23 09:00 pm N 11.7 13.6----30.04+0.00 53.8 53.1 51.1---
2024-06-23 08:50 pm N 11.7 13.6 9.2 117.3WNW30.04- 53.8 53.2 51.1---
2024-06-23 08:40 pm N 11.7 13.6----30.04- 53.8- 51.1---
2024-06-23 08:30 pm N 11.7 13.6----30.04- 53.8 53.2 51.3---
2024-06-23 08:20 pm N 9.7 13.6 8.9 117.6WNW30.04- 53.8 53.2 51.3---
2024-06-23 08:10 pm N 9.7 11.7----30.04- 53.8 53.2 51.3---
2024-06-23 08:00 pm N 11.7 13.6----30.04-0.01 54.0 53.1 51.4---
2024-06-23 07:50 pm N 11.7 15.5 9.5 127.6 NW30.04- 54.0 53.1 51.3---
2024-06-23 07:40 pm N 11.7 13.6----30.04- 54.0 52.9 51.3---
2024-06-23 07:30 pm N 11.7 13.6----30.04- 54.1 52.9 51.4---
2024-06-23 07:20 pm N 11.7 15.5 8.5 117.2 NW30.04- 54.1 53.1 51.4---
2024-06-23 07:10 pm N 11.7 15.5 8.5-7.2 NW30.04- 54.1 53.1 51.4---
2024-06-23 07:00 pm N 11.7 15.5----30.04-0.01 54.1 53.1 51.3---
2024-06-23 06:50 pm N 11.7 15.5 7.2 126.9 NW30.04- 54.3 53.2 51.3---
2024-06-23 06:40 pm N 13.6 15.5----30.04- 54.3 53.2 51.1---
2024-06-23 06:30 pm N 11.7 15.5----30.04- 54.3 53.2 51.1---
2024-06-23 06:20 pm N 13.6 15.5 6.9 126.7 NW30.04- 54.3 53.4 50.7---
2024-06-23 06:10 pm N 13.6 15.5 6.9-6.7 NW30.04- 54.3 53.4 50.9---
2024-06-23 06:00 pm N 13.6 15.5----30.04-0.02 54.3 53.4 50.9---
2024-06-23 05:50 pm N 13.6 15.5 6.6 136.4 NW30.04- 54.3 53.4 51.1---
2024-06-23 05:40 pm N 11.7 15.5----30.04- 54.1 53.4 51.1---
2024-06-23 05:30 pm N 11.7 13.6----30.04- 54.0 53.2 51.1---
2024-06-23 05:20 pm N 11.7 13.6 6.6 126.5 NW30.05- 54.0 53.2 51.3---
2024-06-23 05:10 pm N 9.7 13.6----30.05- 54.0 52.7 51.4---
2024-06-23 05:00 pm N 9.7 11.7----30.05+0.00 54.0 52.9 51.4---
2024-06-23 04:50 pm N 9.7 13.6 5.6 136.1 NW30.05- 54.0 53.2 51.4---
2024-06-23 04:40 pm N 11.7 13.6----30.05- 54.0 53.2 51.3---
2024-06-23 04:30 pm N 11.7 13.6----30.05- 54.0 53.4 51.3---
2024-06-23 04:10 pm N 9.7 13.6 5.2-5.8NNW30.05- 54.0 53.8 51.3---
2024-06-23 04:00 pm N 9.7 13.6----30.06+0.00 53.8 54.0 51.1---
2024-06-23 03:50 pm N 9.7 13.6 4.9 75.8 NW30.06- 53.8 54.0 51.1---
2024-06-23 03:40 pm N 9.7 13.6----30.06- 53.8 54.3 51.1---
2024-06-23 03:30 pm N 11.7 13.6----30.06- 53.8 54.3 50.9---
2024-06-23 03:20 pm N 11.7 13.6 4.9 75.6 NW30.06- 53.8 54.3 50.9---
2024-06-23 03:10 pm N 11.7 13.6----30.06- 53.8 54.3 50.9---
2024-06-23 03:00 pm N 11.7 13.6----30.06+0.00 53.8 54.1 50.9---
2024-06-23 02:50 pm N 11.7 15.5 4.9 75.3 NW30.06- 53.8 54.3 50.9---
2024-06-23 02:40 pm N 11.7 13.6----30.06- 53.8 54.3 50.9---
2024-06-23 02:30 pm N 11.7 13.6----30.06- 53.8 54.0 50.9---
2024-06-23 02:20 pm N 11.7 15.5 5.2 75.3 NW30.06- 53.8 54.3 50.9---
2024-06-23 02:10 pm N 11.7 15.5----30.06- 53.8 54.3 51.1---
2024-06-23 02:00 pm N 13.6 15.5----30.06+0.00 53.8 54.0 51.1---
2024-06-23 01:50 pm N 13.6 17.5 4.9 64.9 NW30.06- 53.8 54.1 50.9---
2024-06-23 01:40 pm N 13.6 17.5----30.06- 53.8 54.1 50.9---
2024-06-23 01:30 pm N 15.5 17.5----30.05- 53.8 54.3 50.9---
2024-06-23 01:20 pm N 15.5 19.4 5.2 64.9 NW30.06- 53.8 53.6 50.9---
2024-06-23 01:10 pm N 13.6 17.5 5.2-4.9 NW30.05- 53.8 52.7 51.1---
2024-06-23 01:00 pm N 13.6 15.5----30.06+0.02 53.8 52.5 51.1---
2024-06-23 12:50 pm N 13.6 15.5 5.2 64.8 NW30.06- 53.8 52.7 50.9---
2024-06-23 12:40 pm N 13.6 17.5----30.06- 53.8 52.7 50.7---
2024-06-23 12:30 pm N 13.6 17.5----30.06- 54.0 52.7 50.5---
2024-06-23 12:20 pm N 13.6 17.5 4.9 64.9 NW30.06- 54.0- 50.7---
2024-06-23 12:10 pm N 15.5 17.5 4.9-4.9 NW30.06- 54.0 52.5 50.7---
2024-06-23 12:00 pm N 15.5 19.4----30.05+0.01 54.0 52.5 50.9---
2024-06-23 11:50 amNNW 13.6 15.5 4.9 64.9 NW30.06- 53.6 52.5 50.9---
2024-06-23 11:40 am N 13.6 17.5----30.06- 53.8 52.5 50.9---
2024-06-23 11:30 am N 15.5 17.5----30.05- 53.8 52.7 50.9---
2024-06-23 11:20 am N 13.6 15.5 4.3 64.8 NW30.05- 53.8 52.7 51.1---
2024-06-23 11:10 am N 13.6 15.5----30.06- 53.8 52.7 51.1---
2024-06-23 11:00 am N 11.7 15.5----30.05+0.02 53.8 52.7 51.1---
2024-06-23 10:50 am N 11.7 15.5 4.6 64.8 NW30.06- 53.8 52.5 51.1---
2024-06-23 10:40 am N 11.7 15.5 4.6-4.8 NW30.05- 53.8 52.5 51.1---
2024-06-23 10:30 am N 11.7 15.5----30.05- 53.8 52.3 51.1---
2024-06-23 10:20 am N 11.7 13.6 4.3 64.8 NW30.05- 53.6 52.3 51.1---
2024-06-23 10:10 am N 11.7 13.6 4.3-4.8 NW30.05- 53.6 52.3 50.9---
2024-06-23 10:00 am N 11.7 13.6----30.04+0.02 53.6 52.2 50.9---
2024-06-23 09:50 am N 11.7 15.5 3.9 64.7NNW30.04- 53.4 52.2 50.9---
2024-06-23 09:40 am N 11.7 13.6 3.9-4.7NNW30.04- 53.4 52.0 51.1---
2024-06-23 09:30 am N 9.7 13.6----30.04- 53.2 52.0 51.1---
2024-06-23 09:20 am N 9.7 13.6 4.3 64.8 NW30.04- 53.2 52.0 51.3---
2024-06-23 09:10 am N 9.7 13.6 4.3-4.8 NW30.04- 53.2 52.0 51.3---
2024-06-23 09:00 am N 11.7 13.6----30.04+0.03 53.2- 51.4---
2024-06-23 08:50 am N 11.7 13.6 4.3 64.8 NW30.04- 53.2 52.0 51.4---
2024-06-23 08:40 am N 11.7 13.6----30.04- 53.2 52.0 51.4---
2024-06-23 08:30 am N 11.7 13.6----30.04- 53.2 52.2 51.4---
2024-06-23 08:20 am N 11.7 15.5 3.9 64.7 NW30.04- 53.4 52.2 51.6---
2024-06-23 08:10 am N 13.6 15.5----30.03- 53.2 52.2 51.6---
2024-06-23 08:00 am N 13.6 15.5----30.03+0.02 53.2 52.2 51.8---
2024-06-23 07:50 am N 11.7 15.5 4.3 64.7 NW30.03- 53.1 52.2 52.0---
2024-06-23 07:40 am N 13.6 17.5----30.02- 53.1 52.3 52.2---
2024-06-23 07:30 am N 11.7 15.5----30.03- 52.9 52.3 52.3---
2024-06-23 07:20 am N 11.7 15.5 3.9 64.6 NW30.02- 52.7 52.7 52.2---
2024-06-23 07:10 am N 13.6 15.5 3.9-4.6 NW30.02- 52.5 52.7 52.0---
2024-06-23 07:00 am N 13.6 17.5----30.02+0.01 52.7 52.7 52.2---
2024-06-23 06:50 am N 15.5 17.5 3.9 64.5 NW30.02- 52.7 52.9 52.2---
2024-06-23 06:40 am N 15.5 19.4----30.02- 52.7 52.9 52.2---
2024-06-23 06:30 am N 17.5 19.4----30.02- 52.9 52.9 52.3---
2024-06-23 06:20 am N 17.5 19.4 3.9 64.6 NW30.02- 52.9 53.2 52.3---
2024-06-23 06:10 am N 17.5 19.4 3.9-4.6 NW30.02- 52.9 53.2 52.3---
2024-06-23 06:00 am N 17.5 19.4----30.01+0.00 52.9 53.2 52.3---
2024-06-23 05:50 am N 15.5 17.5 3.6 64.6 NW30.01- 52.9 53.1 52.3---
2024-06-23 05:40 am N 13.6 17.5----30.01- 52.9 53.2 52.3---
2024-06-23 05:30 am N 13.6 17.5----30.01- 52.9 53.1 52.3---
2024-06-23 05:20 am N 13.6 17.5 3.9 74.5 NW30.01- 52.9- 52.3---
2024-06-23 05:10 am N 13.6 15.5 3.9-4.5 NW30.01- 52.9 53.2 52.3---
2024-06-23 05:00 am N 13.6 15.5----30.01+0.00 53.1 53.2 52.5---
2024-06-23 04:50 am N 13.6 15.5----30.01- 53.1 53.4 52.5---
2024-06-23 04:40 am N 13.6 15.5----30.01- 53.2 53.4 52.7---
2024-06-23 04:30 am-------30.01-- 53.4----
2024-06-23 04:20 am N 15.5 19.4----30.01- 53.4 53.2 52.9---
2024-06-23 04:10 am N 15.5 19.4----30.01- 53.4 53.4 52.9---
2024-06-23 04:00 am N 13.6 17.5----30.01-0.01 53.6 53.6 53.1---
2024-06-23 03:50 am N 13.6 15.5 3.3 74.7WNW30.01- 53.6 53.6 53.1---
2024-06-23 03:40 am N 13.6 15.5----30.01- 53.6 53.8 53.1---
2024-06-23 03:30 am N 11.7 13.6----30.01- 53.4 53.8 52.9---
2024-06-23 03:20 am N 11.7 13.6 2.6 54.6 NW30.01- 53.4 54.0 52.9---
2024-06-23 03:10 am N 11.7 13.6 2.6-4.6 NW30.01- 53.4 54.1 52.9---
2024-06-23 03:00 am N 11.7 13.6----30.01-0.01 53.4 54.3 52.9---
2024-06-23 02:50 am N 11.7 13.6 2.6 64.8 NW30.01- 53.6 54.5 53.1---
2024-06-23 02:40 am N 11.7 13.6----30.01- 53.8 54.7 53.2---
2024-06-23 02:30 am N 11.7 13.6----30.01- 53.8 54.7 53.2---
2024-06-23 02:20 am N 11.7 15.5 2.6 65.2 NW30.01- 54.0 54.7 53.4---
2024-06-23 02:10 am N 11.7 13.6----30.01- 54.0 55.2 53.4---
2024-06-23 02:00 am N 9.7 11.7----30.01-0.01 53.8 55.4 53.2---
2024-06-23 01:50 am N 9.7 11.7 2.6 65.3 NW30.01- 53.6 55.6 53.1---
2024-06-23 01:40 am N 7.8 9.7 2.6-5.3 NW30.01- 53.4 55.6 52.9---
2024-06-23 01:30 am N 5.8 7.8----30.01- 53.2 55.4 52.7---
2024-06-23 01:20 am N 5.8 7.8 2.6 75.2 NW30.01- 53.1 55.6 52.5---
2024-06-23 01:10 am N 5.8 7.8 2.6-5.2 NW30.01- 53.1 55.6 52.5---
2024-06-23 01:00 am N 5.8 7.8----30.02+0.00 53.1 55.2 52.5---
2024-06-23 12:50 am N 5.8 7.8 2.6 65.3 NW30.02- 53.1 55.4 52.5---
2024-06-23 12:40 am N 5.8 7.8 2.6-5.3 NW30.02- 52.9 55.4 52.3---
2024-06-23 12:30 am N 5.8 7.8----30.01- 52.9 55.2 52.3---
2024-06-23 12:20 am N 5.8 5.8 3.0 65.1 NW30.02- 52.5 55.4 52.0---
2024-06-23 12:10 am N 5.8 7.8 3.0-5.1 NW30.02- 52.7 52.2 52.2---
2024-06-23 12:00 am N 5.8 7.8----30.02+0.01 52.7 52.2 52.2---
2024-06-22 11:50 pm N 5.8 7.8 3.0 65.0 NW30.02- 52.7 52.2 52.2---
2024-06-22 11:40 pm N 7.8 7.8----30.02- 52.7 52.2 52.2---
2024-06-22 11:30 pm N 7.8 9.7----30.02- 52.7 52.2 52.2---
2024-06-22 11:20 pm N 7.8 9.7 3.3 65.0 NW30.02- 52.7 52.2 52.2---
2024-06-22 11:10 pm N 7.8 7.8 3.3-5.0 NW30.02- 52.7 52.2 52.2---
2024-06-22 11:00 pm N 5.8 7.8----30.02+0.02 52.7 52.2 52.2---
2024-06-22 10:50 pm N 5.8 7.8 3.3 55.0 NW30.02- 52.7 52.2 52.2---

Detailed Wave Summary
for 46022 as of
(11:10 pm PDT on 06/23/2024)
0610 GMT on 06/24/2024:

These wave data are displayed in rounded times.

     

Click on the graph icon in the table below to see a time series plot of the last five days of that observation.

5-day plot - Significant Wave Height Significant Wave Height (WVHT): 7.9 ft
5-day plot - Swell Height Swell Height (SwH): 7.2 ft
5-day plot - Swell Period Swell Period (SwP): 12.1 sec
5-day plot - Swell Direction Swell Direction (SwD):WNW
5-day plot - Wind Wave Height Wind Wave Height (WWH): 2.6 ft
5-day plot - Wind Wave Period Wind Wave Period (WWP): 5.0 sec
5-day plot - Wind Wave Direction Wind Wave Direction (WWD): NW
5-day plot - Wave Steepness Wave Steepness (STEEPNESS): SWELL
5-day plot - Average Wave Period Average Wave Period (APD): 7.0 sec
Previous observations
TIME
(PDT)
5-day plot - Wave Height
WVHT
ft
5-day plot - Swell Height
SwH
ft
5-day plot - Swell Period
SwP
sec
5-day plot - Swell Direction
SwD
 
5-day plot - Wind Wave Height
WWH
ft
5-day plot - Wind Wave Period
WWP
sec
5-day plot - Wind Wave Direction
WWD
 
5-day plot - Wave Steepness
STEEPNESS
 
5-day plot - Average Wave Period
APD
sec
2024-06-23 10:40 pm 8.9 8.5 11.4WNW 2.3 4.5 NNW SWELL 7.5
2024-06-23 10:10 pm 8.9 8.5 11.4WNW 2.6 4.3 NNW SWELL 7.6
2024-06-23 09:40 pm 8.5 8.2 11.4WNW 2.6 4.2 NNW SWELL 7.3
2024-06-23 09:10 pm 8.5 8.2 11.4WNW 3.0 5.3 NW SWELL 7.4
2024-06-23 08:40 pm 9.2 8.5 11.4WNW 3.0 4.8 NW SWELL 7.3
2024-06-23 08:10 pm 8.9 8.5 11.4WNW 2.6 4.3 WNW SWELL 7.6
2024-06-23 07:40 pm 9.5 8.9 12.1 NW 3.0 4.0 NW SWELL 7.6
2024-06-23 07:10 pm 8.5 7.9 11.4 NW 3.3 5.0 NW SWELL 7.2
2024-06-23 06:40 pm 7.2 6.2 12.1 NW 3.3 5.9 NW SWELL 6.9
2024-06-23 06:10 pm 6.9 5.9 12.1 NW 3.6 5.9 NW SWELL 6.7
2024-06-23 05:40 pm 6.6 5.6 12.9 NW 3.0 4.2 NW SWELL 6.4
2024-06-23 05:10 pm 6.6 6.2 12.1 NW 2.3 4.3 NW SWELL 6.5
2024-06-23 04:40 pm 5.6 4.9 12.9 NW 2.6 4.8 NNW SWELL 6.1
2024-06-23 04:10 pm 5.2 4.6 6.2NNW 2.0 4.5 NNW STEEP 5.8
2024-06-23 03:40 pm 4.9 4.6 7.1 NW 2.0 4.8 NW STEEP 5.8
2024-06-23 03:10 pm 4.9 4.3 6.7 NW 2.6 5.3 NW STEEP 5.6
2024-06-23 02:40 pm 4.9 4.3 7.1 NW 3.0 5.0 NW STEEP 5.3
2024-06-23 02:10 pm 5.2 3.9 6.7 NW 3.3 5.6 NW STEEP 5.3
2024-06-23 01:40 pm 4.9 2.6 12.1WSW 3.9 6.2 NW STEEP 4.9
2024-06-23 01:10 pm 5.2 1.6 13.8WNW 4.9 6.2 NW STEEP 4.9
2024-06-23 12:40 pm 5.2 2.0 7.1 NW 4.6 6.2 NW STEEP 4.8
2024-06-23 12:10 pm 4.9 1.6 7.7WNW 4.9 6.2 NW STEEP 4.9
2024-06-23 11:40 am 4.9 2.6 13.8WSW 4.3 6.2 NW STEEP 4.9
2024-06-23 11:10 am 4.3 2.3 13.8NNE 3.6 6.2 NW STEEP 4.8
2024-06-23 10:40 am 4.6 2.6 13.8 SW 3.6 5.9 NW STEEP 4.8
2024-06-23 10:10 am 4.3 3.3 6.2 NW 2.6 3.7 NNW STEEP 4.8
2024-06-23 09:40 am 3.9 2.6 8.3WNW 3.0 5.6 NNWVERY_STEEP 4.7
2024-06-23 09:10 am 4.3 3.3 5.9 NW 2.6 4.8 NNW STEEP 4.8
2024-06-23 08:40 am 4.3 3.0 5.9 NW 3.3 5.3 NNW STEEP 4.8
2024-06-23 08:10 am 3.9 1.6 13.8WNW 3.6 6.2 NW STEEP 4.7
2024-06-23 07:40 am 4.3 2.0 14.8 NW 3.9 5.9 NW STEEP 4.7
2024-06-23 07:10 am 3.9 1.6 8.3 NW 3.6 5.9 NW STEEP 4.6
2024-06-23 06:40 am 3.9 1.3 12.9NNW 3.6 5.9 NW STEEP 4.5
2024-06-23 06:10 am 3.9 1.0 12.1NNW 3.6 5.9 NW STEEP 4.6
2024-06-23 05:40 am 3.6 1.3 13.8ENE 3.3 5.9 NW STEEP 4.6
2024-06-23 05:10 am 3.9 1.3 13.8 SW 3.6 6.7 NW STEEP 4.5
2024-06-23 03:40 am 3.3 1.6 6.7WNW 2.6 5.3 NNW AVERAGE 4.7
2024-06-23 03:10 am 2.6 2.0 6.7 NW 2.0 5.0 NW STEEP 4.6
2024-06-23 02:40 am 2.6 2.0 6.7WNW 2.0 5.6 NW STEEP 4.8
2024-06-23 02:10 am 2.6 2.0 6.2 NW 1.6 5.3 NW AVERAGE 5.2
2024-06-23 01:40 am 2.6 2.6 5.6 NW 1.0 2.9 NW STEEP 5.3
2024-06-23 01:10 am 2.6 2.6 6.7 NW 1.0 4.0 NW AVERAGE 5.2
2024-06-23 12:40 am 2.6 2.3 5.6 NW 1.0 4.0 NW N/A 5.3
2024-06-23 12:10 am 3.0 2.6 5.6 NW 1.0 3.7 NNW STEEP 5.1
2024-06-22 11:40 pm 3.0 2.6 5.9 NW 1.0 3.8 NW STEEP 5.0
2024-06-22 11:10 pm 3.3 3.0 5.6 NW 1.3 3.3 NW STEEP 5.0

Plot of wave energy versus frequency (and period)